Weather in Podolovka

Russia / Amur Oblast     49°53′09″N   129°11′17″E
temp.,
°C
wind,
m/s
gust,
m/s
humid.,
%
clouds,
%
prec.,
mm/h
press.,
hPa
HPBL,
m
22 october, fri
fri2200:00−2nw38892 0.0 1020128
03:00−3nw38895 0.0 1020129
06:00−4nw37885 0.0 1021109
09:000nw36745 0.0 1022179
12:00+5w24545 0.0 1021577
15:00+7wsw35546 0.0 1019744
18:00+2wsw22685 0.0 102010
21:00+1wnw33734 0.0 102018
23 october, sat
sat2300:00+1w33801 0.0 102025
03:000w33835 0.0 102023
06:000wsw22835 0.0 102017
09:00+3sw36745 0.0 1020156
12:00+7sw45585 0.0 1019534
15:00+9w36581 0.0 1018444
18:00+4w22680 0.0 101910
21:00+3w22730 0.0 102010
24 october, sun
sun2400:00+2w22781 0.0 102010
03:00+1sw22820 0.0 102010
06:00+1ssw22840 0.0 102010
09:00+4s23730 0.0 1020121
12:00+7s34613 0.0 1019422
15:00+9ssw46565 0.0 1017609
18:00+5s33700 0.0 101833
21:00+3ssw45720 0.0 101864
25 october, mon
mon2500:00+2ssw34780 0.0 101753
03:00+1s35790 0.0 101661
06:00+1s46815 0.0 101680
09:00+3s49694 0.0 1016258
12:00+8ssw575335 0.0 1014557
15:00+10ssw475155 0.0 1012861
18:00+5ssw34681 0.0 101352
21:00+4ssw48730 0.0 1013125
26 october, tue
tue2600:00+2s337883 0.0 101240
03:00+3s3475100 0.0 101163
06:00+3sse3576100 0.0 101187
09:00+4sse3672100 0.0 1010193
12:00+7ssw4559100 0.0 1010612
15:00+8sw2358100 0.0 1010682
18:00+5wnw2270100 0.0 101115
21:00+3nnw4982100 0.0 1012236